This demonstration page uses our WeatherBlox Daily Observations layout. Learn more.

Left ArrowRight Arrow

39.01783, -85.05884

Hourly Observations for February 26, 2017

Temp ( °F °C ) Dew Point ( °F °C ) Humidity (%) Winds ( mph kmh ) Pressure ( in mb ) Visibility ( mi km ) Precip ( " mm )
12:52 am 00:52 Clear 27 -2.8 17 -8.3 66 66 WSW 5 7 30.08 1019 10 16 0.00 0.00
1:52 am 01:52 Clear 25 -3.9 17 -8.3 72 72 W 7 11 30.11 1020 10 16 0.00 0.00
2:52 am 02:52 Clear 25 -3.9 16 -8.9 69 69 W 7 11 30.11 1020 10 16 0.00 0.00
3:52 am 03:52 Clear 23 -5 16 -8.9 74 74 W 7 11 30.13 1020 10 16 0.00 0.00
4:52 am 04:52 Clear 23 -5 15 -9.4 72 72 WNW 8 13 30.14 1021 10 16 0.00 0.00
5:52 am 05:52 Clear 23 -5 15 -9.4 72 72 WSW 5 7 30.17 1022 10 16 0.00 0.00
6:52 am 06:52 Clear 21 -6.1 15 -9.4 78 78 WSW 5 7 30.18 1022 10 16 0.00 0.00
7:52 am 07:52 Sunny 21 -6.1 17 -8.3 85 85 SSW 5 7 30.21 1023 10 16 0.00 0.00
8:52 am 08:52 Sunny 27 -2.8 18 -7.8 69 69 SSW 5 7 30.22 1024 10 16 0.00 0.00
9:52 am 09:52 Sunny 30 -1.1 18 -7.8 61 61 S 8 13 30.24 1024 10 16 0.00 0.00
10:52 am 10:52 Sunny 34 1.1 16 -8.9 48 48 WSW 7 11 30.24 1024 10 16 0.00 0.00
11:52 am 11:52 Sunny 37 2.8 15 -9.4 41 41 S 9 15 30.22 1024 10 16 0.00 0.00
12:52 pm 12:52 Sunny 41 5 15 -9.4 35 35 SSE 12 19 30.19 1022 10 16 0.00 0.00
1:52 pm 13:52 Partly Cloudy 44 6.7 14 -10 30 30 SSW 8 13 30.17 1022 10 16 0.00 0.00
2:52 pm 14:52 Mostly Sunny 45 7.2 13 -10.6 27 27 SW 9 15 30.16 1021 10 16 0.00 0.00
3:52 pm 15:52 Partly Cloudy 46 7.8 14 -10 27 27 SW 12 19 30.15 1021 10 16 0.00 0.00
4:52 pm 16:52 Mostly Cloudy 46 7.8 13 -10.6 26 26 SSW 7 11 30.15 1021 10 16 0.00 0.00
5:52 pm 17:52 Mostly Cloudy 45 7.2 14 -10 29 29 SSW 13 20 30.16 1021 10 16 0.00 0.00
6:52 pm 18:52 Mostly Cloudy 42 5.6 16 -8.9 35 35 S 6 9 30.16 1022 10 16 0.00 0.00
7:52 pm 19:52 Mostly Cloudy 41 5 19 -7.2 41 41 S 6 9 30.18 1022 10 16 0.00 0.00
8:52 pm 20:52 Cloudy 40 4.4 21 -6.1 47 47 S 7 11 30.17 1022 10 16 0.00 0.00
9:52 pm 21:52 Cloudy 40 4.4 20 -6.7 45 45 S 7 11 30.16 1022 10 16 0.00 0.00
10:52 pm 22:52 Cloudy 40 4.4 19 -7.2 43 43 S 6 9 30.17 1022 10 16 0.00 0.00
11:52 pm 23:52 Cloudy 39 3.9 21 -6.1 48 48 S 6 9 30.18 1022 10 16 0.00 0.00

Powered by AerisWeather